| time (UTC) | temp F | wind direction | speed MPH | gust MPH | rain 1hr in | rain 24hr in | rain mn in | humidity % | barometer mb |
| 20260831022105 | 67 | 19 | 3.0 | 7.0 | 0.00 | 0.26 | 0.26 | 76 | 1023.4 |
| 20260831021556 | 67 | 11 | 4.0 | 7.0 | 0.00 | 0.26 | 0.26 | 77 | 1023.1 |
| 20260831021105 | 67 | 319 | 3.0 | 6.0 | 0.00 | 0.26 | 0.26 | 79 | 1023.2 |
| 20260831020506 | 67 | 323 | 3.0 | 9.0 | 0.00 | 0.26 | 0.26 | 78 | 1022.8 |
| 20260831015553 | 67 | 326 | 0.0 | 4.0 | 0.00 | 0.26 | 0.26 | 80 | 1022.4 |
| 20260831015045 | 67 | 134 | 0.0 | 5.0 | 0.02 | 0.26 | 0.26 | 76 | 1022.2 |
| 20260831014554 | 67 | 128 | 1.0 | 6.0 | 0.03 | 0.26 | 0.26 | 74 | 1021.9 |
| 20260831014102 | 67 | 161 | 3.0 | 6.0 | 0.03 | 0.26 | 0.26 | 75 | 1021.7 |
| 20260831013505 | 66 | 355 | 0.0 | 2.0 | 0.03 | 0.26 | 0.26 | 73 | 1021.6 |
| 20260831013109 | 66 | 355 | 0.0 | 2.0 | 0.03 | 0.26 | 0.26 | 77 | 1021.7 |
| 20260831012506 | 66 | 355 | 0.0 | 4.0 | 0.03 | 0.26 | 0.26 | 79 | 1021.6 |
| 20260831012103 | 66 | 355 | 0.0 | 4.0 | 0.03 | 0.26 | 0.26 | 79 | 1021.6 |
| 20260831011507 | 66 | 355 | 2.0 | 6.0 | 0.03 | 0.26 | 0.26 | 79 | 1021.5 |
| 20260831011101 | 66 | 360 | 2.0 | 8.0 | 0.03 | 0.26 | 0.26 | 81 | 1021.5 |
| 20260831010557 | 66 | 313 | 3.0 | 16.0 | 0.03 | 0.26 | 0.26 | 79 | 1021.7 |
| 20260831010044 | 66 | 302 | 7.0 | 16.0 | 0.03 | 0.26 | 0.26 | 76 | 1021.7 |
| 20260831005552 | 67 | 302 | 9.0 | 16.0 | 0.03 | 0.26 | 0.26 | 74 | 1021.9 |
| 20260831005100 | 68 | 281 | 4.0 | 13.0 | 0.01 | 0.24 | 0.24 | 78 | 1022.1 |
| 20260831004503 | 67 | 297 | 7.0 | 13.0 | 0.00 | 0.23 | 0.23 | 80 | 1022.1 |
| 20260831004058 | 67 | 319 | 1.0 | 3.0 | 0.00 | 0.23 | 0.23 | 78 | 1021.7 |
| 20260831003501 | 67 | 14 | 1.0 | 5.0 | 0.00 | 0.23 | 0.23 | 79 | 1021.5 |
| 20260831003057 | 67 | 360 | 2.0 | 6.0 | 0.04 | 0.23 | 0.23 | 79 | 1021.5 |
| 20260831002546 | 66 | 24 | 3.0 | 6.0 | 0.14 | 0.23 | 0.23 | 76 | 1021.5 |
| 20260831002054 | 66 | 59 | 3.0 | 6.0 | 0.20 | 0.23 | 0.23 | 79 | 1021.6 |
| 20260831001546 | 66 | 22 | 3.0 | 7.0 | 0.23 | 0.23 | 0.23 | 81 | 1021.6 |
| 20260831001042 | 66 | 26 | 4.0 | 8.0 | 0.23 | 0.23 | 0.23 | 81 | 1021.7 |
| 20260831000547 | 65 | 43 | 3.0 | 8.0 | 0.23 | 0.23 | 0.23 | 82 | 1021.7 |
| 20260831000040 | 65 | 9 | 4.0 | 10.0 | 0.23 | 0.23 | 0.23 | 80 | 1021.7 |
| 20260830235551 | 65 | 21 | 5.0 | 10.0 | 0.23 | 0.23 | 0.23 | 77 | 1021.8 |
| 20260830235057 | 65 | 30 | 6.0 | 11.0 | 0.23 | 0.23 | 0.23 | 80 | 1021.9 |
| 20260830234601 | 65 | 15 | 4.0 | 12.0 | 0.23 | 0.23 | 0.23 | 81 | 1021.9 |
| 20260830234054 | 64 | 355 | 7.0 | 14.0 | 0.23 | 0.23 | 0.23 | 82 | 1022.0 |
| 20260830233601 | 65 | 5 | 11.0 | 17.0 | 0.23 | 0.23 | 0.23 | 79 | 1022.2 |
| 20260830233004 | 66 | 321 | 13.0 | 26.0 | 0.17 | 0.17 | 0.17 | 76 | 1022.7 |
| 20260830232605 | 68 | 319 | 15.0 | 37.0 | 0.09 | 0.09 | 0.09 | 69 | 1022.6 |
| 20260830232005 | 78 | 311 | 24.0 | 34.0 | 0.01 | 0.01 | 0.01 | 47 | 1021.8 |
| 20260830231604 | 84 | 275 | 4.0 | 7.0 | 0.00 | 0.00 | 0.00 | 32 | 1021.8 |
| 20260830231051 | 84 | 229 | 1.0 | 6.0 | 0.00 | 0.00 | 0.00 | 31 | 1021.6 |
| 20260830230600 | 84 | 167 | 3.0 | 7.0 | 0.00 | 0.00 | 0.00 | 31 | 1021.5 |
| 20260830230051 | 85 | 133 | 2.0 | 6.0 | 0.00 | 0.00 | 0.00 | 31 | 1021.3 |
| 20260830225541 | 85 | 182 | 3.0 | 6.0 | 0.00 | 0.00 | 0.00 | 30 | 1021.4 |
| 20260830225049 | 85 | 171 | 1.0 | 9.0 | 0.00 | 0.00 | 0.00 | 30 | 1021.5 |
| 20260830224550 | 86 | 156 | 5.0 | 11.0 | 0.00 | 0.00 | 0.00 | 30 | 1021.5 |
| 20260830224050 | 86 | 148 | 3.0 | 11.0 | 0.00 | 0.00 | 0.00 | 30 | 1021.6 |
| 20260830223559 | 86 | 159 | 4.0 | 10.0 | 0.00 | 0.00 | 0.00 | 30 | 1021.6 |
| 20260830223109 | 86 | 196 | 5.0 | 10.0 | 0.00 | 0.00 | 0.00 | 30 | 1021.7 |
| 20260830222556 | 86 | 178 | 5.0 | 12.0 | 0.00 | 0.00 | 0.00 | 29 | 1021.7 |
| 20260830222106 | 87 | 157 | 6.0 | 14.0 | 0.00 | 0.00 | 0.00 | 29 | 1021.7 |
| 20260830221607 | 88 | 169 | 8.0 | 14.0 | 0.00 | 0.00 | 0.00 | 28 | 1021.8 |
| 20260830221105 | 89 | 170 | 4.0 | 14.0 | 0.00 | 0.00 | 0.00 | 28 | 1021.8 |
| 20260830220507 | 88 | 244 | 1.0 | 8.0 | 0.00 | 0.00 | 0.00 | 28 | 1021.9 |
| 20260830220004 | 88 | 287 | 4.0 | 12.0 | 0.00 | 0.00 | 0.00 | 27 | 1021.9 |
| 20260830215602 | 88 | 134 | 5.0 | 12.0 | 0.00 | 0.00 | 0.00 | 28 | 1022.0 |
| 20260830215106 | 88 | 244 | 6.0 | 15.0 | 0.00 | 0.00 | 0.00 | 28 | 1022.0 |
| 20260830214508 | 88 | 225 | 8.0 | 15.0 | 0.00 | 0.00 | 0.00 | 28 | 1022.0 |
| 20260830214101 | 88 | 186 | 8.0 | 13.0 | 0.00 | 0.00 | 0.00 | 29 | 1022.2 |
| 20260830213504 | 87 | 138 | 7.0 | 13.0 | 0.00 | 0.00 | 0.00 | 30 | 1022.4 |
| 20260830213106 | 87 | 115 | 6.0 | 13.0 | 0.00 | 0.00 | 0.00 | 30 | 1022.5 |
| 20260830212558 | 87 | 136 | 8.0 | 14.0 | 0.00 | 0.00 | 0.00 | 30 | 1022.5 |
| 20260830212041 | 88 | 175 | 7.0 | 12.0 | 0.00 | 0.00 | 0.00 | 30 | 1022.5 |
| 20260830211555 | 87 | 123 | 6.0 | 12.0 | 0.00 | 0.00 | 0.00 | 31 | 1022.6 |
| 20260830211056 | 87 | 159 | 6.0 | 9.0 | 0.00 | 0.00 | 0.00 | 31 | 1022.6 |
| 20260830210607 | 87 | 137 | 3.0 | 11.0 | 0.00 | 0.00 | 0.00 | 31 | 1022.6 |
| 20260830210104 | 87 | 112 | 4.0 | 12.0 | 0.00 | 0.00 | 0.00 | 30 | 1022.9 |
| 20260830205504 | 87 | 174 | 8.0 | 13.0 | 0.00 | 0.00 | 0.00 | 31 | 1022.9 |
| 20260830205059 | 87 | 184 | 3.0 | 11.0 | 0.00 | 0.00 | 0.00 | 32 | 1022.9 |
| 20260830204547 | 87 | 155 | 6.0 | 11.0 | 0.00 | 0.00 | 0.00 | 32 | 1023.1 |
| 20260830204056 | 87 | 169 | 7.0 | 11.0 | 0.00 | 0.00 | 0.00 | 32 | 1023.2 |
| 20260830203548 | 86 | 157 | 3.0 | 11.0 | 0.00 | 0.00 | 0.00 | 32 | 1023.4 |
| 20260830203056 | 86 | 167 | 2.0 | 15.0 | 0.00 | 0.00 | 0.00 | 33 | 1023.5 |
| 20260830202603 | 85 | 178 | 4.0 | 15.0 | 0.00 | 0.00 | 0.00 | 33 | 1023.6 |
| 20260830202007 | 84 | 136 | 2.0 | 10.0 | 0.00 | 0.00 | 0.00 | 34 | 1023.7 |
| 20260830201523 | 84 | 131 | 4.0 | 10.0 | 0.00 | 0.00 | 0.00 | 35 | 1023.8 |
| 20260830201019 | 83 | 180 | 3.0 | 10.0 | 0.00 | 0.00 | 0.00 | 35 | 1023.8 |
| 20260830200527 | 82 | 139 | 3.0 | 10.0 | 0.00 | 0.00 | 0.00 | 36 | 1023.8 |
| 20260830200036 | 82 | 157 | 4.0 | 10.0 | 0.00 | 0.00 | 0.00 | 35 | 1023.8 |
| 20260830195543 | 82 | 149 | 6.0 | 10.0 | 0.00 | 0.00 | 0.00 | 35 | 1023.8 |
| 20260830195051 | 82 | 127 | 5.0 | 10.0 | 0.00 | 0.00 | 0.00 | 36 | 1023.8 |
| 20260830194559 | 83 | 126 | 5.0 | 9.0 | 0.00 | 0.00 | 0.00 | 36 | 1023.9 |
| 20260830194002 | 83 | 150 | 4.0 | 10.0 | 0.00 | 0.00 | 0.00 | 36 | 1024.0 |
| 20260830193559 | 83 | 211 | 3.0 | 10.0 | 0.00 | 0.00 | 0.00 | 36 | 1024.0 |
| 20260830193009 | 83 | 180 | 4.0 | 9.0 | 0.00 | 0.00 | 0.00 | 35 | 1024.1 |
| 20260830192600 | 83 | 167 | 4.0 | 9.0 | 0.00 | 0.00 | 0.00 | 36 | 1024.1 |
| 20260830192053 | 82 | 31 | 2.0 | 9.0 | 0.00 | 0.00 | 0.00 | 37 | 1024.0 |
| 20260830191558 | 82 | 45 | 3.0 | 9.0 | 0.00 | 0.00 | 0.00 | 38 | 1024.1 |
| 20260830191054 | 82 | 47 | 1.0 | 8.0 | 0.00 | 0.00 | 0.00 | 39 | 1024.1 |
| 20260830190559 | 81 | 117 | 1.0 | 8.0 | 0.00 | 0.00 | 0.00 | 38 | 1024.3 |
| 20260830190050 | 81 | 126 | 2.0 | 8.0 | 0.00 | 0.00 | 0.00 | 38 | 1024.3 |
| 20260830185539 | 80 | 118 | 3.0 | 7.0 | 0.00 | 0.00 | 0.00 | 39 | 1024.5 |
| 20260830185046 | 80 | 46 | 2.0 | 7.0 | 0.00 | 0.00 | 0.00 | 41 | 1024.5 |
| 20260830184555 | 80 | 34 | 0.0 | 6.0 | 0.00 | 0.00 | 0.00 | 41 | 1024.6 |
| 20260830184104 | 80 | 90 | 2.0 | 6.0 | 0.00 | 0.00 | 0.00 | 41 | 1024.6 |
| 20260830183555 | 79 | 192 | 1.0 | 7.0 | 0.00 | 0.00 | 0.00 | 41 | 1024.6 |
| 20260830183105 | 79 | 148 | 4.0 | 7.0 | 0.00 | 0.00 | 0.00 | 42 | 1024.6 |
| 20260830182556 | 79 | 141 | 1.0 | 6.0 | 0.00 | 0.00 | 0.00 | 42 | 1024.7 |
| 20260830182104 | 78 | 101 | 2.0 | 6.0 | 0.00 | 0.00 | 0.00 | 43 | 1024.8 |
| 20260830181557 | 78 | 129 | 3.0 | 6.0 | 0.00 | 0.00 | 0.00 | 45 | 1024.8 |
| 20260830181105 | 78 | 157 | 1.0 | 9.0 | 0.00 | 0.00 | 0.00 | 45 | 1024.9 |
| 20260830180504 | 78 | 152 | 1.0 | 9.0 | 0.00 | 0.00 | 0.00 | 45 | 1024.9 |
| 20260830180107 | 78 | 182 | 2.0 | 7.0 | 0.00 | 0.00 | 0.00 | 46 | 1025.1 |
| 20260830175500 | 77 | 115 | 3.0 | 7.0 | 0.00 | 0.00 | 0.00 | 46 | 1025.1 |
| 20260830175058 | 77 | 187 | 3.0 | 7.0 | 0.00 | 0.00 | 0.00 | 46 | 1025.2 |
| 20260830174502 | 77 | 159 | 3.0 | 6.0 | 0.00 | 0.00 | 0.00 | 47 | 1025.2 |
| 20260830174059 | 77 | 166 | 0.0 | 5.0 | 0.00 | 0.00 | 0.00 | 47 | 1025.3 |
| 20260830173551 | 76 | 157 | 3.0 | 7.0 | 0.00 | 0.00 | 0.00 | 47 | 1025.3 |
| 20260830173101 | 76 | 146 | 2.0 | 7.0 | 0.00 | 0.00 | 0.00 | 47 | 1025.4 |
| 20260830172551 | 76 | 107 | 3.0 | 7.0 | 0.00 | 0.00 | 0.00 | 47 | 1025.4 |
| 20260830172044 | 76 | 140 | 2.0 | 6.0 | 0.00 | 0.00 | 0.00 | 47 | 1025.5 |
| 20260830171555 | 76 | 96 | 1.0 | 5.0 | 0.00 | 0.00 | 0.00 | 48 | 1025.5 |
| 20260830171046 | 76 | 150 | 3.0 | 5.0 | 0.00 | 0.00 | 0.00 | 49 | 1025.5 |
| 20260830170533 | 76 | 162 | 3.0 | 6.0 | 0.00 | 0.00 | 0.00 | 49 | 1025.6 |
| 20260830170042 | 75 | 143 | 2.0 | 9.0 | 0.00 | 0.00 | 0.00 | 50 | 1025.6 |
| 20260830165534 | 75 | 136 | 3.0 | 8.0 | 0.00 | 0.00 | 0.00 | 50 | 1025.7 |
| 20260830165045 | 75 | 82 | 3.0 | 6.0 | 0.00 | 0.00 | 0.00 | 50 | 1025.6 |
| 20260830164553 | 75 | 159 | 3.0 | 9.0 | 0.00 | 0.00 | 0.00 | 51 | 1025.6 |
| 20260830164058 | 74 | 180 | 5.0 | 9.0 | 0.00 | 0.00 | 0.00 | 51 | 1025.5 |
| 20260830163504 | 74 | 111 | 4.0 | 9.0 | 0.00 | 0.00 | 0.00 | 53 | 1025.5 |
| 20260830163019 | 74 | 117 | 4.0 | 9.0 | 0.00 | 0.00 | 0.00 | 53 | 1025.4 |
| 20260830162604 | 73 | 130 | 3.0 | 9.0 | 0.00 | 0.00 | 0.00 | 53 | 1025.4 |
| 20260830162007 | 73 | 128 | 3.0 | 9.0 | 0.00 | 0.00 | 0.00 | 54 | 1025.3 |
| 20260830161514 | 72 | 123 | 4.0 | 9.0 | 0.00 | 0.00 | 0.00 | 55 | 1025.3 |
| 20260830161022 | 72 | 112 | 4.0 | 10.0 | 0.00 | 0.00 | 0.00 | 55 | 1025.4 |
| 20260830160530 | 72 | 135 | 5.0 | 10.0 | 0.00 | 0.00 | 0.00 | 55 | 1025.3 |
| 20260830160039 | 71 | 68 | 4.0 | 9.0 | 0.00 | 0.00 | 0.00 | 56 | 1025.2 |
| 20260830155548 | 71 | 108 | 5.0 | 9.0 | 0.00 | 0.00 | 0.00 | 56 | 1025.3 |
| 20260830155057 | 71 | 116 | 4.0 | 11.0 | 0.00 | 0.00 | 0.00 | 57 | 1025.2 |
| 20260830154601 | 71 | 138 | 5.0 | 11.0 | 0.00 | 0.00 | 0.00 | 58 | 1025.2 |
| 20260830154004 | 70 | 114 | 5.0 | 10.0 | 0.00 | 0.00 | 0.00 | 58 | 1025.2 |
| 20260830153601 | 70 | 93 | 6.0 | 10.0 | 0.00 | 0.00 | 0.00 | 58 | 1025.2 |
| 20260830153005 | 70 | 137 | 5.0 | 11.0 | 0.00 | 0.00 | 0.00 | 59 | 1025.2 |
| 20260830152605 | 69 | 104 | 4.0 | 10.0 | 0.00 | 0.00 | 0.00 | 59 | 1025.1 |
| 20260830152054 | 69 | 132 | 6.0 | 11.0 | 0.00 | 0.00 | 0.00 | 59 | 1025.1 |
| 20260830151605 | 69 | 107 | 4.0 | 10.0 | 0.00 | 0.00 | 0.00 | 60 | 1025.1 |
| 20260830151003 | 69 | 128 | 5.0 | 10.0 | 0.00 | 0.00 | 0.00 | 60 | 1025.0 |
| 20260830150511 | 69 | 115 | 5.0 | 10.0 | 0.00 | 0.00 | 0.00 | 60 | 1025.2 |
| 20260830150105 | 69 | 144 | 4.0 | 8.0 | 0.00 | 0.00 | 0.00 | 61 | 1025.2 |
| 20260830145508 | 68 | 111 | 3.0 | 8.0 | 0.00 | 0.00 | 0.00 | 61 | 1025.1 |
| 20260830145104 | 68 | 134 | 4.0 | 10.0 | 0.00 | 0.00 | 0.00 | 61 | 1025.2 |
| 20260830144553 | 68 | 116 | 5.0 | 11.0 | 0.00 | 0.00 | 0.00 | 61 | 1025.0 |
| 20260830144105 | 68 | 85 | 6.0 | 10.0 | 0.00 | 0.00 | 0.00 | 60 | 1025.0 |
| 20260830143558 | 68 | 123 | 5.0 | 9.0 | 0.00 | 0.00 | 0.00 | 60 | 1025.1 |
| 20260830143043 | 68 | 85 | 4.0 | 10.0 | 0.00 | 0.00 | 0.00 | 60 | 1025.0 |
| 20260830142551 | 68 | 90 | 5.0 | 10.0 | 0.00 | 0.00 | 0.00 | 60 | 1024.9 |
| 20260830142045 | 68 | 124 | 7.0 | 10.0 | 0.00 | 0.00 | 0.00 | 61 | 1024.9 |
| 20260830141557 | 67 | 103 | 6.0 | 10.0 | 0.00 | 0.00 | 0.00 | 61 | 1024.8 |
| 20260830141100 | 67 | 78 | 5.0 | 10.0 | 0.00 | 0.00 | 0.00 | 62 | 1024.7 |
| 20260830140503 | 67 | 132 | 3.0 | 10.0 | 0.00 | 0.00 | 0.00 | 62 | 1024.6 |
| 20260830140023 | 66 | 117 | 4.0 | 11.0 | 0.00 | 0.00 | 0.00 | 62 | 1024.7 |
| 20260830135533 | 66 | 115 | 3.0 | 11.0 | 0.00 | 0.00 | 0.00 | 62 | 1024.6 |
| 20260830135039 | 66 | 72 | 5.0 | 11.0 | 0.00 | 0.00 | 0.00 | 63 | 1024.6 |
| 20260830134552 | 65 | 93 | 7.0 | 11.0 | 0.00 | 0.00 | 0.00 | 63 | 1024.6 |
| 20260830134055 | 65 | 82 | 5.0 | 11.0 | 0.00 | 0.00 | 0.00 | 63 | 1024.7 |
| 20260830133602 | 65 | 73 | 6.0 | 11.0 | 0.00 | 0.00 | 0.00 | 63 | 1024.6 |
| 20260830133006 | 65 | 71 | 5.0 | 10.0 | 0.00 | 0.00 | 0.00 | 64 | 1024.6 |
| 20260830132513 | 65 | 86 | 5.0 | 10.0 | 0.00 | 0.00 | 0.00 | 64 | 1024.4 |
| 20260830132022 | 64 | 61 | 5.0 | 10.0 | 0.00 | 0.00 | 0.00 | 64 | 1024.4 |
| 20260830131529 | 64 | 94 | 3.0 | 11.0 | 0.00 | 0.00 | 0.00 | 65 | 1024.4 |
| 20260830131040 | 64 | 80 | 6.0 | 11.0 | 0.00 | 0.00 | 0.00 | 65 | 1024.3 |
| 20260830130544 | 64 | 81 | 6.0 | 10.0 | 0.00 | 0.00 | 0.00 | 65 | 1024.3 |
| 20260830130053 | 64 | 65 | 5.0 | 10.0 | 0.00 | 0.00 | 0.00 | 66 | 1024.2 |
| 20260830125545 | 64 | 78 | 5.0 | 10.0 | 0.00 | 0.00 | 0.00 | 66 | 1024.1 |
| 20260830125053 | 64 | 74 | 5.0 | 9.0 | 0.00 | 0.00 | 0.00 | 66 | 1024.1 |
| 20260830124550 | 64 | 66 | 4.0 | 9.0 | 0.00 | 0.00 | 0.00 | 66 | 1024.2 |
| 20260830124035 | 64 | 86 | 4.0 | 9.0 | 0.00 | 0.00 | 0.00 | 66 | 1024.2 |
| 20260830123545 | 64 | 65 | 3.0 | 10.0 | 0.00 | 0.00 | 0.00 | 66 | 1024.2 |
| 20260830123051 | 64 | 69 | 4.0 | 10.0 | 0.00 | 0.00 | 0.00 | 66 | 1024.0 |
| 20260830122600 | 64 | 85 | 5.0 | 9.0 | 0.00 | 0.00 | 0.00 | 66 | 1024.1 |
| 20260830122051 | 64 | 78 | 3.0 | 10.0 | 0.00 | 0.00 | 0.00 | 66 | 1024.1 |
| 20260830121603 | 64 | 90 | 5.0 | 10.0 | 0.00 | 0.00 | 0.00 | 66 | 1024.0 |
| 20260830121057 | 64 | 91 | 6.0 | 10.0 | 0.00 | 0.00 | 0.00 | 66 | 1023.9 |
| 20260830120600 | 64 | 98 | 5.0 | 10.0 | 0.00 | 0.00 | 0.00 | 66 | 1024.0 |
| 20260830120056 | 64 | 82 | 5.0 | 10.0 | 0.00 | 0.00 | 0.00 | 67 | 1024.0 |
| 20260830115543 | 64 | 91 | 4.0 | 9.0 | 0.00 | 0.00 | 0.00 | 67 | 1023.9 |
| 20260830115051 | 64 | 75 | 4.0 | 9.0 | 0.00 | 0.00 | 0.00 | 67 | 1023.9 |
| 20260830114611 | 64 | 90 | 4.0 | 10.0 | 0.00 | 0.00 | 0.00 | 67 | 1023.9 |
| 20260830114105 | 64 | 82 | 6.0 | 10.0 | 0.00 | 0.00 | 0.00 | 67 | 1024.0 |
| 20260830113600 | 64 | 60 | 3.0 | 7.0 | 0.00 | 0.00 | 0.00 | 66 | 1024.0 |
| 20260830113110 | 64 | 77 | 2.0 | 7.0 | 0.00 | 0.00 | 0.00 | 66 | 1024.0 |
| 20260830112557 | 64 | 96 | 2.0 | 6.0 | 0.00 | 0.00 | 0.00 | 66 | 1024.0 |
| 20260830112002 | 64 | 105 | 3.0 | 8.0 | 0.00 | 0.00 | 0.00 | 66 | 1024.1 |
| 20260830111509 | 64 | 73 | 3.0 | 9.0 | 0.00 | 0.00 | 0.00 | 66 | 1024.1 |
| 20260830111104 | 64 | 90 | 3.0 | 9.0 | 0.00 | 0.00 | 0.00 | 65 | 1024.0 |
| 20260830110507 | 64 | 75 | 5.0 | 7.0 | 0.00 | 0.00 | 0.00 | 65 | 1023.8 |
| 20260830110103 | 64 | 75 | 3.0 | 10.0 | 0.00 | 0.00 | 0.00 | 66 | 1023.9 |
| 20260830105508 | 64 | 61 | 4.0 | 9.0 | 0.00 | 0.00 | 0.00 | 66 | 1024.0 |
| 20260830105103 | 64 | 52 | 3.0 | 7.0 | 0.00 | 0.00 | 0.00 | 66 | 1023.9 |
| 20260830104557 | 64 | 91 | 2.0 | 8.0 | 0.00 | 0.00 | 0.00 | 66 | 1024.0 |
| 20260830104101 | 64 | 72 | 3.0 | 8.0 | 0.00 | 0.00 | 0.00 | 66 | 1024.0 |
| 20260830103555 | 64 | 86 | 4.0 | 8.0 | 0.00 | 0.00 | 0.00 | 66 | 1024.0 |
| 20260830103102 | 64 | 101 | 4.0 | 9.0 | 0.00 | 0.00 | 0.00 | 65 | 1024.1 |
| 20260830102555 | 65 | 119 | 4.0 | 9.0 | 0.00 | 0.00 | 0.00 | 65 | 1024.0 |
| 20260830102045 | 65 | 104 | 4.0 | 10.0 | 0.00 | 0.00 | 0.00 | 65 | 1023.9 |
| 20260830101553 | 65 | 90 | 5.0 | 10.0 | 0.00 | 0.00 | 0.00 | 65 | 1024.0 |
| 20260830101101 | 65 | 82 | 4.0 | 10.0 | 0.00 | 0.00 | 0.00 | 65 | 1024.0 |
| 20260830100503 | 64 | 68 | 4.0 | 11.0 | 0.00 | 0.00 | 0.00 | 65 | 1024.0 |
| 20260830100034 | 64 | 80 | 5.0 | 11.0 | 0.00 | 0.00 | 0.00 | 66 | 1023.9 |
| 20260830095543 | 64 | 62 | 4.0 | 8.0 | 0.00 | 0.00 | 0.00 | 66 | 1024.0 |
| 20260830095052 | 64 | 61 | 4.0 | 10.0 | 0.00 | 0.00 | 0.00 | 66 | 1024.0 |
| 20260830094543 | 64 | 42 | 4.0 | 10.0 | 0.00 | 0.00 | 0.00 | 66 | 1024.1 |
| 20260830094050 | 64 | 53 | 4.0 | 9.0 | 0.00 | 0.00 | 0.00 | 67 | 1024.1 |
| 20260830093558 | 64 | 86 | 4.0 | 8.0 | 0.00 | 0.00 | 0.00 | 68 | 1024.1 |
| 20260830093001 | 63 | 80 | 3.0 | 6.0 | 0.00 | 0.00 | 0.00 | 69 | 1024.1 |
| 20260830092600 | 63 | 64 | 3.0 | 7.0 | 0.00 | 0.00 | 0.00 | 69 | 1024.1 |
| 20260830092006 | 63 | 53 | 3.0 | 6.0 | 0.00 | 0.00 | 0.00 | 69 | 1024.1 |
| 20260830091600 | 64 | 74 | 3.0 | 5.0 | 0.00 | 0.00 | 0.00 | 69 | 1024.1 |
| 20260830091055 | 64 | 80 | 1.0 | 6.0 | 0.00 | 0.00 | 0.00 | 68 | 1024.0 |
| 20260830090601 | 64 | 90 | 3.0 | 5.0 | 0.00 | 0.00 | 0.00 | 68 | 1024.1 |
| 20260830090103 | 64 | 117 | 2.0 | 9.0 | 0.00 | 0.00 | 0.00 | 68 | 1024.0 |
| 20260830085545 | 64 | 109 | 4.0 | 9.0 | 0.00 | 0.00 | 0.00 | 68 | 1024.0 |
| 20260830085050 | 64 | 108 | 5.0 | 7.0 | 0.00 | 0.00 | 0.00 | 68 | 1024.1 |
| 20260830084546 | 64 | 84 | 2.0 | 7.0 | 0.00 | 0.00 | 0.00 | 68 | 1024.2 |
| 20260830084051 | 64 | 63 | 4.0 | 7.0 | 0.00 | 0.00 | 0.00 | 68 | 1024.2 |
| 20260830083559 | 64 | 50 | 3.0 | 8.0 | 0.00 | 0.00 | 0.00 | 69 | 1024.1 |
| 20260830083003 | 64 | 53 | 2.0 | 4.0 | 0.00 | 0.00 | 0.00 | 70 | 1024.2 |
| 20260830082557 | 63 | 65 | 2.0 | 6.0 | 0.00 | 0.00 | 0.00 | 71 | 1024.3 |
| 20260830082044 | 63 | 36 | 3.0 | 6.0 | 0.00 | 0.00 | 0.00 | 71 | 1024.1 |
| 20260830081552 | 63 | 34 | 3.0 | 6.0 | 0.00 | 0.00 | 0.00 | 72 | 1024.2 |
| 20260830081045 | 63 | 28 | 3.0 | 5.0 | 0.00 | 0.00 | 0.00 | 73 | 1024.2 |
| 20260830080553 | 63 | 46 | 3.0 | 6.0 | 0.00 | 0.00 | 0.00 | 73 | 1024.3 |
| 20260830080046 | 63 | 43 | 3.0 | 6.0 | 0.00 | 0.00 | 0.00 | 73 | 1024.3 |
| 20260830075536 | 63 | 26 | 2.0 | 3.0 | 0.00 | 0.00 | 0.00 | 74 | 1024.4 |
| 20260830075043 | 63 | 88 | 1.0 | 2.0 | 0.00 | 0.00 | 0.00 | 74 | 1024.4 |
| 20260830074553 | 64 | 88 | 2.0 | 2.0 | 0.00 | 0.00 | 0.00 | 72 | 1024.5 |
| 20260830074100 | 64 | 88 | 0.0 | 1.0 | 0.00 | 0.00 | 0.00 | 72 | 1024.6 |
| 20260830073554 | 64 | 88 | 0.0 | 2.0 | 0.00 | 0.00 | 0.00 | 71 | 1024.8 |
| 20260830073108 | 64 | 88 | 0.0 | 2.0 | 0.00 | 0.00 | 0.00 | 71 | 1024.7 |
| 20260830072550 | 64 | 88 | 0.0 | 2.0 | 0.00 | 0.00 | 0.00 | 71 | 1024.7 |
| 20260830072057 | 64 | 88 | 0.0 | 3.0 | 0.00 | 0.00 | 0.00 | 71 | 1024.7 |
| 20260830071605 | 64 | 88 | 1.0 | 3.0 | 0.00 | 0.00 | 0.00 | 71 | 1024.6 |
| 20260830071055 | 64 | 70 | 1.0 | 3.0 | 0.00 | 0.00 | 0.00 | 70 | 1024.5 |
| 20260830070602 | 64 | 92 | 1.0 | 4.0 | 0.00 | 0.00 | 0.00 | 70 | 1024.4 |
| 20260830070056 | 65 | 110 | 2.0 | 4.0 | 0.00 | 0.00 | 0.00 | 70 | 1024.4 |
| 20260830065603 | 65 | 110 | 2.0 | 4.0 | 0.00 | 0.00 | 0.00 | 70 | 1024.4 |
| 20260830065056 | 65 | 102 | 2.0 | 4.0 | 0.00 | 0.00 | 0.00 | 70 | 1024.4 |
| 20260830064546 | 65 | 94 | 1.0 | 6.0 | 0.00 | 0.00 | 0.00 | 70 | 1024.4 |
| 20260830064054 | 65 | 124 | 2.0 | 4.0 | 0.00 | 0.00 | 0.00 | 70 | 1024.4 |
| 20260830063602 | 65 | 129 | 1.0 | 4.0 | 0.00 | 0.00 | 0.00 | 70 | 1024.4 |
| 20260830063005 | 65 | 88 | 2.0 | 3.0 | 0.00 | 0.00 | 0.00 | 71 | 1024.4 |
| 20260830062600 | 65 | 111 | 1.0 | 3.0 | 0.00 | 0.00 | 0.00 | 70 | 1024.4 |
| 20260830062002 | 65 | 105 | 1.0 | 4.0 | 0.00 | 0.00 | 0.00 | 70 | 1024.4 |
| 20260830061600 | 65 | 117 | 2.0 | 7.0 | 0.00 | 0.00 | 0.00 | 70 | 1024.4 |
| 20260830061003 | 66 | 133 | 3.0 | 8.0 | 0.00 | 0.00 | 0.00 | 70 | 1024.5 |
| 20260830060511 | 66 | 153 | 5.0 | 10.0 | 0.00 | 0.00 | 0.00 | 70 | 1024.5 |
| 20260830060013 | 66 | 152 | 5.0 | 10.0 | 0.00 | 0.00 | 0.00 | 70 | 1024.5 |
| 20260830055516 | 66 | 130 | 5.0 | 10.0 | 0.00 | 0.00 | 0.00 | 70 | 1024.5 |
| 20260830055022 | 66 | 116 | 4.0 | 10.0 | 0.00 | 0.00 | 0.00 | 70 | 1024.4 |
| 20260830054531 | 66 | 122 | 5.0 | 10.0 | 0.00 | 0.00 | 0.00 | 69 | 1024.4 |
| 20260830054037 | 66 | 122 | 3.0 | 8.0 | 0.00 | 0.00 | 0.00 | 68 | 1024.5 |
| 20260830053546 | 66 | 120 | 4.0 | 8.0 | 0.00 | 0.00 | 0.00 | 68 | 1024.6 |
| 20260830053053 | 66 | 148 | 3.0 | 7.0 | 0.00 | 0.00 | 0.00 | 67 | 1024.6 |
| 20260830052601 | 66 | 124 | 1.0 | 3.0 | 0.00 | 0.00 | 0.00 | 67 | 1024.7 |
| 20260830052006 | 66 | 134 | 0.0 | 6.0 | 0.00 | 0.00 | 0.00 | 66 | 1024.8 |
| 20260830051559 | 66 | 130 | 3.0 | 6.0 | 0.00 | 0.00 | 0.00 | 67 | 1024.9 |
| 20260830051003 | 66 | 157 | 2.0 | 8.0 | 0.00 | 0.00 | 0.00 | 67 | 1024.9 |
| 20260830050600 | 66 | 187 | 3.0 | 8.0 | 0.00 | 0.00 | 0.00 | 67 | 1025.0 |
| 20260830050050 | 66 | 142 | 4.0 | 8.0 | 0.00 | 0.00 | 0.00 | 66 | 1025.1 |
| 20260830045556 | 67 | 128 | 3.0 | 5.0 | 0.00 | 0.00 | 0.00 | 65 | 1025.1 |
| 20260830045106 | 67 | 113 | 2.0 | 4.0 | 0.00 | 0.00 | 0.00 | 65 | 1025.1 |
| 20260830044507 | 67 | 130 | 2.0 | 5.0 | 0.00 | 0.00 | 0.00 | 64 | 1025.1 |
| 20260830044103 | 67 | 150 | 3.0 | 5.0 | 0.00 | 0.00 | 0.00 | 64 | 1025.2 |
| 20260830043505 | 67 | 142 | 2.0 | 7.0 | 0.00 | 0.00 | 0.00 | 64 | 1025.2 |
| 20260830043105 | 67 | 170 | 4.0 | 7.0 | 0.00 | 0.00 | 0.00 | 64 | 1025.2 |
| 20260830042556 | 67 | 147 | 2.0 | 7.0 | 0.00 | 0.00 | 0.00 | 64 | 1025.2 |
| 20260830042101 | 67 | 148 | 4.0 | 7.0 | 0.00 | 0.00 | 0.00 | 64 | 1025.1 |
| 20260830041504 | 68 | 152 | 2.0 | 5.0 | 0.00 | 0.00 | 0.00 | 63 | 1025.1 |
| 20260830041012 | 68 | 153 | 1.0 | 3.0 | 0.00 | 0.00 | 0.00 | 63 | 1025.0 |
| 20260830040502 | 68 | 160 | 1.0 | 3.0 | 0.00 | 0.00 | 0.00 | 63 | 1024.9 |
| 20260830040016 | 68 | 155 | 2.0 | 3.0 | 0.00 | 0.00 | 0.00 | 62 | 1024.9 |
| 20260830035501 | 69 | 136 | 1.0 | 2.0 | 0.00 | 0.00 | 0.00 | 62 | 1024.8 |
| 20260830035059 | 69 | 105 | 0.0 | 3.0 | 0.00 | 0.00 | 0.00 | 62 | 1024.6 |
| 20260830034603 | 69 | 117 | 0.0 | 8.0 | 0.00 | 0.00 | 0.00 | 60 | 1024.6 |
| 20260830034055 | 69 | 119 | 2.0 | 8.0 | 0.00 | 0.00 | 0.00 | 60 | 1024.6 |
| 20260830033604 | 69 | 134 | 3.0 | 8.0 | 0.00 | 0.00 | 0.00 | 60 | 1024.4 |
| 20260830033057 | 69 | 119 | 3.0 | 8.0 | 0.00 | 0.00 | 0.00 | 60 | 1024.2 |
| 20260830032605 | 69 | 111 | 4.0 | 9.0 | 0.00 | 0.00 | 0.00 | 60 | 1024.1 |
| 20260830032008 | 69 | 103 | 4.0 | 9.0 | 0.00 | 0.00 | 0.00 | 60 | 1023.9 |
| 20260830031620 | 69 | 105 | 5.0 | 9.0 | 0.00 | 0.00 | 0.00 | 60 | 1024.0 |
| 20260830031005 | 70 | 115 | 5.0 | 8.0 | 0.00 | 0.00 | 0.00 | 60 | 1023.9 |
| 20260830030605 | 70 | 73 | 4.0 | 8.0 | 0.00 | 0.00 | 0.00 | 59 | 1024.1 |
| 20260830030052 | 70 | 88 | 2.0 | 5.0 | 0.00 | 0.00 | 0.00 | 58 | 1024.5 |
| 20260830025559 | 70 | 339 | 1.0 | 2.0 | 0.00 | 0.00 | 0.00 | 58 | 1024.7 |
| 20260830025053 | 70 | 209 | 0.0 | 8.0 | 0.00 | 0.00 | 0.00 | 58 | 1024.8 |
| 20260830024539 | 70 | 191 | 2.0 | 9.0 | 0.00 | 0.00 | 0.00 | 58 | 1025.0 |
| 20260830024047 | 70 | 198 | 5.0 | 9.0 | 0.00 | 0.00 | 0.00 | 58 | 1025.1 |
| 20260830023556 | 70 | 206 | 4.0 | 11.0 | 0.00 | 0.00 | 0.00 | 61 | 1025.2 |
| 20260830023111 | 70 | 171 | 8.0 | 13.0 | 0.00 | 0.00 | 0.00 | 61 | 1025.0 |
| 20260830022555 | 71 | 173 | 8.0 | 12.0 | 0.00 | 0.00 | 0.00 | 61 | 1025.0 |